CXA8075 ZGGG-ZSAM

Flight info

Callsign CXA8075
Flight time N/A
Altitude 26600
Route LMN G471 XEBUL DCT NUVGA DCT VETIB W155 TEBON
Aircraft B738/M-SDE2E3FGHIRWXY/LB1

Departure

Time 2026-04-29 13:22
Airport Guangzhou Baiyun International Airport (ZGGG)

Arrival

Time N/A
Airport Xiamen Gaoqi International Airport (ZSAM)
Time Latitude Longitude Altitude Speed Heading
2026-04-29 13:20 23.37603 113.30406 53 ft 0 kts 103°
2026-04-29 13:20 23.37603 113.30407 53 ft 0 kts 103°
2026-04-29 13:20 23.37598 113.30431 53 ft 6 kts 103°
2026-04-29 13:21 23.37586 113.30497 53 ft 11 kts 91°
2026-04-29 13:21 23.37655 113.30559 53 ft 15 kts 12°
2026-04-29 13:21 23.37792 113.30595 53 ft 28 kts 14°
2026-04-29 13:21 23.38228 113.30711 53 ft 97 kts 14°
2026-04-29 13:22 23.39083 113.30943 54 ft 153 kts 14°
2026-04-29 13:22 23.40238 113.31242 291 ft 179 kts 13°
2026-04-29 13:22 23.41471 113.31512 1029 ft 180 kts
2026-04-29 13:22 23.42667 113.31541 1873 ft 176 kts 359°
2026-04-29 13:23 23.44002 113.31416 2054 ft 205 kts 358°
2026-04-29 13:23 23.45433 113.31536 2768 ft 203 kts 15°
2026-04-29 13:23 23.46632 113.32049 3870 ft 180 kts 29°
2026-04-29 13:23 23.47695 113.32813 4140 ft 202 kts 34°
2026-04-29 13:24 23.48823 113.33602 4510 ft 215 kts 26°
2026-04-29 13:24 23.50256 113.34246 4857 ft 232 kts 17°
2026-04-29 13:24 23.51813 113.34723 5313 ft 244 kts 13°
2026-04-29 13:24 23.53498 113.35181 5868 ft 253 kts 12°
2026-04-29 13:25 23.55226 113.35655 6481 ft 259 kts 11°
2026-04-29 13:25 23.58828 113.36442 7705 ft 270 kts
2026-04-29 13:25 23.60680 113.36839 8462 ft 273 kts 12°
2026-04-29 13:26 23.62400 113.37772 9048 ft 286 kts 39°
2026-04-29 13:26 23.63588 113.39453 9507 ft 300 kts 65°
2026-04-29 13:26 23.64226 113.41696 9892 ft 314 kts 77°
2026-04-29 13:26 23.64672 113.44055 10363 ft 325 kts 79°
2026-04-29 13:27 23.65133 113.46542 10713 ft 341 kts 78°
2026-04-29 13:27 23.65636 113.49117 11051 ft 356 kts 77°
2026-04-29 13:27 23.66183 113.51810 11398 ft 371 kts 77°
2026-04-29 13:27 23.66773 113.54642 11736 ft 385 kts 77°
2026-04-29 13:28 23.67374 113.57493 12236 ft 392 kts 77°
2026-04-29 13:28 23.67845 113.60471 12810 ft 398 kts 84°
2026-04-29 13:28 23.67956 113.63524 13485 ft 400 kts 91°
2026-04-29 13:28 23.67862 113.66440 14085 ft 404 kts 94°
2026-04-29 13:29 23.67681 113.69485 14688 ft 408 kts 95°
2026-04-29 13:29 23.67529 113.71817 15109 ft 411 kts 95°
2026-04-29 13:29 23.67336 113.74965 15738 ft 414 kts 94°
2026-04-29 13:29 23.67160 113.78140 16277 ft 420 kts 94°
2026-04-29 13:30 23.67009 113.81217 16826 ft 423 kts 94°
2026-04-29 13:30 23.66866 113.84377 17414 ft 425 kts 93°
2026-04-29 13:30 23.66725 113.87659 17941 ft 429 kts 93°
2026-04-29 13:30 23.66589 113.90940 18460 ft 433 kts 93°
2026-04-29 13:31 23.66454 113.94209 18960 ft 437 kts 93°
2026-04-29 13:31 23.66331 113.97201 19412 ft 440 kts 93°
2026-04-29 13:31 23.66197 114.00454 19913 ft 443 kts 93°
2026-04-29 13:31 23.66064 114.03654 20340 ft 447 kts 93°
2026-04-29 13:32 23.65923 114.07049 20806 ft 451 kts 93°
2026-04-29 13:32 23.65779 114.10475 21282 ft 454 kts 93°
2026-04-29 13:32 23.65634 114.13926 21757 ft 456 kts 93°
2026-04-29 13:32 23.65487 114.17396 22426 ft 453 kts 93°
2026-04-29 13:33 23.65341 114.20844 23037 ft 452 kts 93°
2026-04-29 13:33 23.65329 114.24284 23653 ft 451 kts 87°
2026-04-29 13:33 23.65700 114.27642 24227 ft 450 kts 78°
2026-04-29 13:33 23.66570 114.30928 24787 ft 449 kts 68°
2026-04-29 13:34 23.67907 114.33981 25334 ft 447 kts 57°
2026-04-29 13:34 23.69692 114.36762 25849 ft 444 kts 47°
2026-04-29 13:34 23.71837 114.39175 26155 ft 445 kts 38°
2026-04-29 13:34 23.74264 114.41325 26157 ft 440 kts 33°
2026-04-29 13:35 23.76717 114.43230 26162 ft 434 kts 30°
2026-04-29 13:35 23.79228 114.45090 26167 ft 433 kts 30°
2026-04-29 13:35 23.81730 114.46938 26172 ft 437 kts 30°
2026-04-29 13:35 23.84254 114.48841 26169 ft 436 kts 31°
2026-04-29 13:36 23.86737 114.50764 26176 ft 438 kts 31°
2026-04-29 13:36 23.89095 114.52630 26174 ft 437 kts 32°
2026-04-29 13:36 23.91550 114.54605 26179 ft 437 kts 32°
2026-04-29 13:36 23.93991 114.56590 26184 ft 438 kts 33°
2026-04-29 13:37 23.96451 114.58604 26183 ft 437 kts 33°
2026-04-29 13:37 23.98877 114.60598 26181 ft 438 kts 33°
2026-04-29 13:37 24.01321 114.62611 26186 ft 438 kts 33°
2026-04-29 13:37 24.03775 114.64635 26190 ft 439 kts 33°
2026-04-29 13:38 24.06214 114.66649 26191 ft 439 kts 33°
2026-04-29 13:38 24.08653 114.68662 26190 ft 440 kts 33°
2026-04-29 13:38 24.11106 114.70690 26192 ft 438 kts 33°
2026-04-29 13:38 24.13571 114.72729 26191 ft 439 kts 33°
2026-04-29 13:39 24.16022 114.74756 26189 ft 440 kts 33°
2026-04-29 13:39 24.18447 114.76763 26194 ft 441 kts 33°
2026-04-29 13:39 24.20908 114.78802 26196 ft 439 kts 33°
2026-04-29 13:39 24.23244 114.81002 26202 ft 445 kts 42°
2026-04-29 13:40 24.25252 114.83577 26202 ft 450 kts 52°
2026-04-29 13:40 24.26881 114.86533 26200 ft 450 kts 63°
2026-04-29 13:40 24.28032 114.89711 26202 ft 451 kts 73°
2026-04-29 13:40 24.28701 114.93092 26200 ft 452 kts 83°
2026-04-29 13:41 24.28856 114.96484 26195 ft 449 kts 94°
2026-04-29 13:41 24.28541 114.99895 26202 ft 447 kts 101°
2026-04-29 13:41 24.27994 115.03259 26201 ft 448 kts 103°
2026-04-29 13:41 24.27409 115.06578 26195 ft 447 kts 103°
2026-04-29 13:42 24.26845 115.09956 26196 ft 446 kts 102°
2026-04-29 13:42 24.26336 115.13338 26195 ft 449 kts 101°
2026-04-29 13:42 24.25886 115.16712 26198 ft 449 kts 100°
2026-04-29 13:42 24.25484 115.20084 26192 ft 448 kts 98°
2026-04-29 13:43 24.25117 115.23484 26191 ft 448 kts 98°
2026-04-29 13:43 24.24775 115.26892 26196 ft 449 kts 98°
2026-04-29 13:43 24.24451 115.30284 26194 ft 449 kts 97°
2026-04-29 13:43 24.24138 115.33688 26187 ft 448 kts 97°
2026-04-29 13:44 24.23828 115.37130 26189 ft 448 kts 97°
2026-04-29 13:44 24.23538 115.40373 26186 ft 448 kts 97°
2026-04-29 13:44 24.23235 115.43778 26191 ft 448 kts 97°
2026-04-29 13:44 24.22948 115.47182 26186 ft 448 kts 96°
2026-04-29 13:45 24.22692 115.50626 26184 ft 447 kts 96°
2026-04-29 13:45 24.22462 115.53988 26180 ft 448 kts 96°
2026-04-29 13:45 24.22233 115.57412 26177 ft 446 kts 95°
2026-04-29 13:45 24.22007 115.60796 26182 ft 448 kts 96°
2026-04-29 13:46 24.21777 115.64211 26179 ft 447 kts 95°
2026-04-29 13:46 24.21546 115.67596 26179 ft 447 kts 96°
2026-04-29 13:46 24.21313 115.70970 26176 ft 445 kts 96°
2026-04-29 13:46 24.21076 115.74367 26174 ft 447 kts 96°
2026-04-29 13:47 24.20838 115.77753 26171 ft 446 kts 96°
2026-04-29 13:47 24.20598 115.81158 26170 ft 446 kts 96°
2026-04-29 13:47 24.20357 115.84527 26171 ft 446 kts 96°
2026-04-29 13:47 24.20113 115.87930 26170 ft 447 kts 96°
2026-04-29 13:48 24.19866 115.91342 26173 ft 447 kts 96°
2026-04-29 13:48 24.19622 115.94699 26172 ft 447 kts 96°
2026-04-29 13:48 24.19374 115.98103 26166 ft 446 kts 96°
2026-04-29 13:48 24.19126 116.01527 26154 ft 445 kts 96°
2026-04-29 13:49 24.18882 116.04881 26024 ft 447 kts 96°
2026-04-29 13:49 24.18632 116.08298 26066 ft 444 kts 96°
2026-04-29 13:49 24.18385 116.11661 26060 ft 444 kts 96°
2026-04-29 13:49 24.18135 116.15033 26055 ft 445 kts 96°
2026-04-29 13:50 24.17882 116.18429 26060 ft 445 kts 96°
2026-04-29 13:50 24.17645 116.21628 26062 ft 445 kts 96°
2026-04-29 13:50 24.17394 116.24997 26055 ft 445 kts 96°
2026-04-29 13:50 24.17143 116.28361 26062 ft 445 kts 96°
2026-04-29 13:51 24.16890 116.31738 26057 ft 443 kts 96°
2026-04-29 13:51 24.16634 116.35145 26052 ft 444 kts 96°
2026-04-29 13:51 24.16382 116.38501 26051 ft 444 kts 96°
2026-04-29 13:51 24.16128 116.41875 26052 ft 444 kts 96°
2026-04-29 13:52 24.15884 116.45249 26049 ft 444 kts 95°
2026-04-29 13:52 24.15702 116.48587 26047 ft 444 kts 94°
2026-04-29 13:52 24.15566 116.51975 26051 ft 440 kts 94°
2026-04-29 13:52 24.15454 116.55296 26052 ft 425 kts 93°
2026-04-29 13:53 24.15353 116.58485 26055 ft 416 kts 93°
2026-04-29 13:53 24.15249 116.61648 26060 ft 419 kts 94°
2026-04-29 13:53 24.15134 116.64857 26055 ft 422 kts 94°
2026-04-29 13:53 24.15016 116.68032 26050 ft 419 kts 94°
2026-04-29 13:54 24.14950 116.69759 26049 ft 418 kts 94°